PBO Station Position Time Series. Reference Frame : NAM14
Format Version,1.1.0
4-character ID,P194
Station name,WalkerCrk_CN2007
Begin Date, 2007-09-19
End Date, 2019-10-07
Release Date, 2019-10-08
Reference position, 38.1857168643 North Latitude, -122.8162587992 East Longitude, 235.12884 meters elevation,
Date, North (mm), East (mm), Vertical (mm), North Std. Deviation (mm), East Std. Deviation (mm),              Vertical Std. Deviation (mm), Quality,
2007-09-19,0.00, 0.00, 0.00, 1.99, 1.58, 7.17, repro,
2007-09-20,-1.75, 0.58, 3.01, 1.99, 1.57, 7.13, repro,
2007-09-21,-1.60, 1.94, 8.29, 2.07, 1.61, 7.53, repro,
2007-09-22,-0.60, 1.35, 5.33, 2.06, 1.64, 7.46, repro,
2007-09-23,-0.41, 1.16, 11.54, 2.07, 1.64, 7.45, repro,
2007-09-24,-0.23, 2.76, 8.00, 2.09, 1.64, 7.50, repro,
2007-09-25,-1.79, 1.24, 4.83, 2.06, 1.61, 7.43, repro,
2007-09-26,-0.97, 1.14, 9.77, 2.09, 1.60, 7.47, repro,
2007-09-27,-1.44, 1.30, 3.58, 2.07, 1.62, 7.56, repro,
2007-09-28,-1.07, 1.00, 9.01, 2.09, 1.73, 7.65, repro,
2007-09-29,-1.71, 0.68, 7.18, 2.04, 1.66, 7.42, repro,
2007-09-30,-0.74, 1.02, 6.92, 2.05, 1.67, 7.41, repro,
2007-10-01,-1.32, 1.16, 1.83, 2.08, 1.68, 7.62, repro,
2007-10-02,-0.50, 1.34, 10.23, 2.11, 1.73, 7.81, repro,
2007-10-03,-0.82, 1.66, 9.99, 2.07, 1.66, 7.62, repro,
2007-10-04,0.57, 0.23, 10.18, 2.05, 1.65, 7.52, repro,
2007-10-05,-1.34, 1.67, 9.85, 2.07, 1.71, 7.64, repro,
2007-10-06,-1.54, 1.41, 10.46, 2.09, 1.68, 7.53, repro,
2007-10-07,-0.97, 1.95, 4.18, 2.10, 1.68, 7.57, repro,
2007-10-08,-1.63, 2.19, 7.26, 2.30, 1.79, 8.47, repro,
2007-10-09,-1.88, 1.24, 13.88, 2.20, 1.84, 8.21, repro,
2007-10-10,-0.44, 2.38, -0.61, 2.17, 1.70, 7.80, repro,
2007-10-11,-0.59, 2.03, 7.72, 2.03, 1.67, 7.39, repro,
2007-10-12,0.63, 2.22, 4.61, 2.11, 1.70, 7.61, repro,
2007-10-13,-0.60, 1.49, 4.97, 2.00, 1.61, 7.29, repro,
2007-10-14,-0.84, 1.57, 8.61, 2.01, 1.62, 7.42, repro,
2007-10-15,-1.44, 1.36, 12.85, 1.98, 1.61, 7.32, repro,
2007-10-16,-0.72, 2.32, 9.55, 2.02, 1.66, 7.34, repro,
2007-10-17,-0.62, 3.28, 9.75, 2.01, 1.63, 7.38, repro,
2007-10-18,0.50, 1.87, 10.30, 1.99, 1.60, 7.26, repro,
2007-10-19,0.81, 1.90, 6.97, 1.99, 1.61, 7.29, repro,
2007-10-20,0.22, 1.37, 7.53, 2.00, 1.60, 7.43, repro,
2007-10-21,-2.01, 2.33, 10.35, 1.98, 1.61, 7.29, repro,
2007-10-22,0.22, 2.21, 2.28, 1.99, 1.60, 7.29, repro,
2007-10-23,0.05, 2.45, 0.58, 2.04, 1.66, 7.41, repro,
2007-10-24,-0.86, 1.82, 1.26, 2.09, 1.71, 7.66, repro,
2007-10-25,0.27, 1.03, -0.51, 2.00, 1.61, 7.34, repro,
2007-10-26,-0.44, 1.72, -2.50, 2.03, 1.66, 7.46, repro,
2007-10-27,-0.79, 2.45, -0.18, 1.99, 1.62, 7.31, repro,
2007-10-28,-0.42, 1.64, -2.03, 1.99, 1.61, 7.31, repro,
2007-10-29,0.35, 1.62, 0.56, 1.99, 1.60, 7.25, repro,
2007-10-30,-0.95, 1.86, 2.88, 1.98, 1.61, 7.27, repro,
2007-10-31,-0.86, 1.80, 2.24, 2.00, 1.61, 7.33, repro,
2007-11-01,-0.36, 1.92, 1.96, 1.96, 1.57, 7.13, repro,
2007-11-02,-0.28, 1.83, 5.41, 1.97, 1.58, 7.13, repro,
2007-11-03,-0.34, 1.99, 1.21, 1.96, 1.57, 7.09, repro,
2007-11-04,0.34, 2.51, 2.69, 1.97, 1.57, 7.12, repro,
2007-11-05,-0.49, 1.71, 1.37, 1.95, 1.57, 7.07, repro,
2007-11-06,-0.84, 1.35, -2.13, 2.03, 1.67, 7.50, repro,
2007-11-07,-1.28, 1.12, -2.64, 1.95, 1.58, 7.11, repro,
2007-11-08,-0.96, 1.78, 2.23, 1.99, 1.60, 7.20, repro,
2007-11-09,-0.63, 1.12, -3.13, 2.00, 1.60, 7.21, repro,
2007-11-10,0.29, 1.89, -2.26, 1.96, 1.57, 7.13, repro,
2007-11-11,-0.65, 0.87, -0.94, 1.95, 1.57, 7.12, repro,
2007-11-12,-0.33, 1.98, 5.30, 1.97, 1.58, 7.21, repro,
2007-11-13,-0.10, 1.54, 2.24, 1.95, 1.56, 7.12, repro,
2007-11-14,-0.08, 1.57, -5.62, 1.99, 1.58, 7.21, repro,
2007-11-15,0.23, 0.78, -2.34, 2.00, 1.59, 7.23, repro,
2007-11-16,-0.27, 1.13, -1.12, 1.98, 1.60, 7.24, repro,
2007-11-17,0.07, 0.25, -3.47, 1.96, 1.58, 7.17, repro,
2007-11-18,-0.17, 1.02, 1.44, 1.96, 1.59, 7.19, repro,
2007-11-19,0.87, 2.26, -3.76, 1.97, 1.57, 7.15, repro,
2007-11-20,0.10, 0.87, -9.16, 1.99, 1.62, 7.25, repro,
2007-11-21,0.63, 0.60, -2.49, 1.97, 1.62, 7.28, repro,
2007-11-22,0.11, -0.02, -5.91, 1.95, 1.59, 7.13, repro,
2007-11-23,0.46, 0.06, 2.45, 1.98, 1.67, 7.37, repro,
2007-11-24,1.16, -0.05, -0.36, 2.04, 1.67, 7.37, repro,
2007-11-25,0.75, 0.07, 2.51, 2.08, 1.73, 7.47, repro,
2007-11-26,1.39, 0.69, -9.89, 2.09, 1.71, 7.61, repro,
2007-11-27,0.57, 1.34, 4.11, 2.05, 1.69, 7.50, repro,
2007-11-28,0.41, 0.81, -3.38, 2.10, 1.72, 7.60, repro,
2007-11-29,1.20, 0.06, -3.58, 2.05, 1.66, 7.53, repro,
2007-11-30,0.18, 0.22, -3.61, 2.06, 1.69, 7.42, repro,
2007-12-01,0.57, -0.23, 1.17, 2.14, 1.78, 7.82, repro,
2007-12-02,0.49, 1.89, -3.82, 2.17, 1.82, 8.11, repro,
2007-12-03,0.70, 0.53, -5.78, 2.21, 1.83, 8.30, repro,
2007-12-04,-0.37, 0.42, 0.16, 2.28, 2.00, 8.59, repro,
2007-12-05,1.17, 1.38, 2.41, 2.08, 1.78, 7.88, repro,
2007-12-06,1.86, 1.55, 1.91, 2.29, 2.04, 8.69, repro,
2007-12-07,-0.79, 1.99, -0.18, 2.15, 1.80, 7.93, repro,
2007-12-08,-0.93, 0.95, 3.73, 2.07, 1.72, 7.64, repro,
2007-12-09,-0.32, 1.84, 3.43, 2.26, 2.05, 8.94, repro,
2007-12-10,0.96, 0.80, -3.66, 2.07, 1.75, 7.59, repro,
2007-12-11,0.16, 1.16, -2.96, 2.14, 1.79, 7.84, repro,
2007-12-12,1.72, 1.03, -12.19, 2.11, 1.69, 7.85, repro,
2007-12-13,1.15, 1.27, -4.21, 2.07, 1.66, 7.61, repro,
2007-12-14,1.30, 1.32, -1.87, 2.02, 1.61, 7.35, repro,
2007-12-15,-0.16, 1.84, 5.41, 2.02, 1.60, 7.37, repro,
2007-12-16,0.00, 0.70, 0.62, 2.02, 1.61, 7.37, repro,
2007-12-17,1.01, 2.17, 3.02, 2.03, 1.61, 7.41, repro,
2007-12-18,2.01, 0.77, 0.98, 2.05, 1.65, 7.52, repro,
2007-12-19,0.24, 1.66, 1.55, 2.12, 1.68, 7.73, repro,
2007-12-20,1.83, 1.32, 0.57, 2.05, 1.68, 7.47, repro,
2007-12-21,-0.09, 1.41, -10.31, 2.08, 1.67, 7.56, repro,
2007-12-22,0.97, 2.45, 0.68, 2.16, 1.79, 8.10, repro,
2007-12-23,1.73, 2.68, -3.92, 2.07, 1.69, 7.63, repro,
2007-12-24,0.15, 2.31, 0.03, 2.08, 1.70, 7.64, repro,
2007-12-25,1.42, 1.67, -0.85, 2.04, 1.64, 7.44, repro,
2007-12-26,0.97, 1.10, 3.07, 2.02, 1.63, 7.37, repro,
2007-12-27,1.01, 2.06, 3.74, 2.06, 1.66, 7.57, repro,
2007-12-28,0.85, 1.89, 4.55, 2.08, 1.67, 7.65, repro,
2007-12-29,0.89, 2.29, 2.53, 2.06, 1.66, 7.57, repro,
2007-12-30,0.35, 1.50, -3.73, 2.08, 1.66, 7.58, repro,
2007-12-31,0.30, 2.42, -1.61, 2.01, 1.58, 7.25, repro,
2008-01-01,1.68, 2.41, -4.40, 2.00, 1.58, 7.25, repro,
2008-01-02,0.91, 3.20, -2.56, 2.03, 1.59, 7.31, repro,
2008-01-03,-0.64, 0.43, -0.23, 2.04, 1.59, 7.41, repro,
2008-01-04,1.18, 1.70, 0.66, 2.04, 1.60, 7.40, repro,
2008-01-05,0.51, 0.62, 3.14, 1.99, 1.55, 7.18, repro,
2008-01-06,0.35, 1.28, 2.28, 2.00, 1.56, 7.27, repro,
2008-01-07,0.20, 1.88, 1.57, 1.99, 1.56, 7.22, repro,
2008-01-08,1.33, 3.73, -3.50, 2.15, 1.67, 7.80, repro,
2008-01-09,-0.89, 2.82, -0.43, 2.02, 1.57, 7.31, repro,
2008-01-10,1.79, 2.75, -4.01, 2.05, 1.61, 7.37, repro,
2008-01-11,0.75, 3.15, -0.47, 1.99, 1.56, 7.23, repro,
2008-01-12,0.96, 4.02, -2.62, 2.03, 1.62, 7.31, repro,
2008-01-13,-0.22, 2.46, -9.24, 2.00, 1.58, 7.24, repro,
2008-01-14,1.40, 3.61, -5.57, 1.97, 1.57, 7.17, repro,
2008-01-15,0.57, 2.79, 2.15, 2.04, 1.57, 7.38, repro,
2008-01-16,0.94, 2.64, -6.72, 2.02, 1.58, 7.28, repro,
2008-01-17,0.97, 2.61, -3.37, 2.01, 1.58, 7.28, repro,
2008-01-18,0.35, 3.11, -1.25, 1.99, 1.61, 7.31, repro,
2008-01-19,0.88, 2.81, -7.13, 1.97, 1.57, 7.15, repro,
2008-01-20,0.04, 2.50, -4.00, 1.95, 1.55, 7.09, repro,
2008-01-21,0.46, 2.60, -5.15, 1.97, 1.57, 7.19, repro,
2008-01-22,0.16, 2.97, 0.50, 1.97, 1.56, 7.14, repro,
2008-01-23,0.45, 2.32, -4.75, 1.96, 1.56, 7.07, repro,
2008-01-24,-1.02, 3.53, -0.16, 1.98, 1.57, 7.17, repro,
2008-01-25,-0.14, 3.11, -4.25, 1.96, 1.56, 7.10, repro,
2008-01-26,0.12, 3.35, -2.03, 1.96, 1.56, 7.12, repro,
2008-01-27,1.26, 2.70, 5.24, 1.98, 1.56, 7.18, repro,
2008-01-28,-0.02, 2.46, 6.43, 1.99, 1.57, 7.17, repro,
2008-01-29,0.49, 4.10, -4.48, 2.06, 1.69, 7.52, repro,
2008-01-30,0.53, 3.06, -2.89, 2.07, 1.65, 7.56, repro,
2008-01-31,0.40, 2.49, -8.22, 1.95, 1.56, 7.12, repro,
2008-02-01,0.55, 3.22, -4.08, 1.96, 1.57, 7.13, repro,
2008-02-02,0.04, 2.72, -11.21, 1.97, 1.57, 7.16, repro,
2008-02-03,-1.20, 3.22, -0.15, 1.95, 1.56, 7.06, repro,
2008-02-04,2.00, 4.37, -12.61, 1.97, 1.57, 7.15, repro,
2008-02-05,1.02, 4.37, -4.91, 2.00, 1.64, 7.33, repro,
2008-02-06,0.26, 4.08, -8.79, 1.99, 1.63, 7.34, repro,
2008-02-07,1.26, 3.23, -5.79, 2.01, 1.62, 7.44, repro,
2008-02-08,-0.36, 4.05, -3.55, 1.97, 1.57, 7.17, repro,
2008-02-09,-0.43, 4.54, -1.41, 1.97, 1.58, 7.18, repro,
2008-02-10,0.14, 3.56, 0.29, 1.97, 1.57, 7.16, repro,
2008-02-11,0.76, 4.05, -2.28, 1.96, 1.56, 7.11, repro,
2008-02-12,-0.07, 4.04, -0.86, 1.96, 1.56, 7.14, repro,
2008-02-13,0.26, 2.51, -0.58, 1.96, 1.57, 7.14, repro,
2008-02-14,0.20, 3.53, -0.32, 1.96, 1.57, 7.13, repro,
2008-02-15,1.48, 2.50, -3.57, 2.01, 1.63, 7.35, repro,
2008-02-16,-0.04, 3.20, 0.48, 1.97, 1.58, 7.16, repro,
2008-02-17,-0.71, 3.93, -2.01, 1.95, 1.56, 7.08, repro,
2008-02-18,0.19, 3.07, 0.07, 1.98, 1.58, 7.25, repro,
2008-02-19,-0.17, 3.85, 1.86, 1.96, 1.58, 7.14, repro,
2008-02-20,1.13, 4.50, -2.33, 2.02, 1.61, 7.26, repro,
2008-02-21,0.06, 2.80, -3.82, 1.96, 1.58, 7.18, repro,
2008-02-22,-1.07, 4.13, 3.31, 1.96, 1.57, 7.12, repro,
2008-02-23,-0.41, 3.35, -6.09, 1.98, 1.58, 7.27, repro,
2008-02-24,0.85, 2.79, -4.44, 1.97, 1.59, 7.27, repro,
2008-02-25,-0.31, 2.79, -2.60, 1.98, 1.58, 7.23, repro,
2008-02-26,-0.56, 4.25, -9.47, 1.98, 1.59, 7.24, repro,
2008-02-27,-0.29, 3.81, -5.73, 2.01, 1.61, 7.32, repro,
2008-02-28,-1.04, 3.07, -9.03, 2.01, 1.62, 7.37, repro,
2008-02-29,-0.21, 2.78, -5.33, 2.00, 1.62, 7.37, repro,
2008-03-01,0.22, 3.18, -2.08, 1.96, 1.59, 7.20, repro,
2008-03-02,-0.32, 3.13, 0.02, 2.00, 1.60, 7.28, repro,
2008-03-03,-0.55, 3.90, -2.34, 1.96, 1.57, 7.15, repro,
2008-03-04,-0.26, 3.89, -1.97, 1.97, 1.58, 7.22, repro,
2008-03-05,0.04, 2.81, -5.20, 2.03, 1.69, 7.68, repro,
2008-03-06,0.06, 2.53, -4.90, 1.96, 1.57, 7.17, repro,
2008-03-07,0.73, 3.01, -6.52, 1.97, 1.58, 7.22, repro,
2008-03-08,-0.31, 3.16, -3.90, 2.01, 1.62, 7.47, repro,
2008-03-09,-1.01, 2.67, 0.40, 2.01, 1.62, 7.50, repro,
2008-03-10,-0.44, 2.59, -6.01, 1.97, 1.58, 7.25, repro,
2008-03-11,0.13, 2.77, -3.92, 1.97, 1.58, 7.22, repro,
2008-03-12,-0.03, 2.26, -3.62, 2.00, 1.61, 7.44, repro,
2008-03-13,-0.92, 2.26, 1.03, 2.00, 1.61, 7.38, repro,
2008-03-14,-0.64, 1.64, -2.78, 1.99, 1.62, 7.41, repro,
2008-03-15,-0.18, 1.45, -5.08, 1.97, 1.59, 7.25, repro,
2008-03-16,-1.14, 2.24, 1.95, 2.01, 1.63, 7.44, repro,
2008-03-17,-0.43, 1.43, -0.63, 2.10, 1.74, 8.00, repro,
2008-03-18,-1.26, 2.05, -2.61, 2.03, 1.66, 7.57, repro,
2008-03-19,0.31, 2.28, -3.18, 2.00, 1.61, 7.37, repro,
2008-03-20,0.19, 2.60, -5.56, 2.01, 1.61, 7.43, repro,
2008-03-21,-0.18, 2.58, -7.72, 2.00, 1.61, 7.39, repro,
2008-03-22,-0.27, 2.19, -7.42, 2.01, 1.61, 7.42, repro,
2008-03-23,-0.42, 1.91, -11.38, 2.02, 1.62, 7.42, repro,
2008-03-24,-0.05, 2.39, -5.54, 2.00, 1.61, 7.39, repro,
2008-03-25,0.41, 3.75, -2.96, 2.04, 1.65, 7.49, repro,
2008-03-26,0.24, 1.68, -6.10, 2.07, 1.69, 7.80, repro,
2008-03-27,-0.87, 1.59, -7.49, 2.03, 1.63, 7.50, repro,
2008-03-28,0.10, 2.38, -3.11, 2.01, 1.61, 7.37, repro,
2008-03-29,0.71, 2.28, -1.37, 2.01, 1.59, 7.37, repro,
2008-03-30,0.45, 1.70, -5.02, 1.99, 1.57, 7.26, repro,
2008-03-31,0.39, 2.60, -1.18, 1.99, 1.57, 7.27, repro,
2008-04-01,0.44, 1.81, -3.69, 1.99, 1.57, 7.28, repro,
2008-04-02,-0.16, 1.45, -1.90, 2.04, 1.59, 7.48, repro,
2008-04-03,-0.39, 2.20, -0.25, 2.00, 1.58, 7.32, repro,
2008-04-04,0.45, 2.77, -7.41, 2.00, 1.58, 7.37, repro,
2008-04-05,0.11, 1.57, 1.78, 2.00, 1.58, 7.30, repro,
2008-04-06,-0.05, 2.40, -2.73, 1.99, 1.57, 7.29, repro,
2008-04-07,-0.89, 2.81, -4.00, 1.98, 1.57, 7.28, repro,
2008-04-08,-0.31, 1.24, 1.12, 2.01, 1.57, 7.34, repro,
2008-04-09,-1.23, 3.07, 3.09, 2.01, 1.58, 7.38, repro,
2008-04-10,-0.54, 2.61, -1.30, 1.99, 1.58, 7.33, repro,
2008-04-11,-0.47, 2.22, 1.15, 2.00, 1.58, 7.33, repro,
2008-04-12,-1.31, 2.44, -1.55, 2.00, 1.58, 7.35, repro,
2008-04-13,0.09, 2.01, -2.90, 2.00, 1.57, 7.33, repro,
2008-04-14,-0.13, 0.83, -4.26, 2.07, 1.60, 7.51, repro,
2008-04-15,-0.39, 1.79, 3.44, 2.03, 1.63, 7.42, repro,
2008-04-16,-0.11, 1.74, -0.35, 2.03, 1.62, 7.42, repro,
2008-04-17,-1.00, 1.75, 0.56, 1.99, 1.57, 7.34, repro,
2008-04-18,0.47, 1.29, -1.22, 2.00, 1.57, 7.36, repro,
2008-04-19,-1.06, 2.13, -2.20, 2.00, 1.57, 7.35, repro,
2008-04-20,-0.35, 2.33, 1.57, 1.99, 1.57, 7.32, repro,
2008-04-21,-0.29, 2.73, -1.24, 2.00, 1.57, 7.34, repro,
2008-04-22,-0.47, 2.72, -3.83, 2.02, 1.58, 7.44, repro,
2008-04-23,-0.53, 2.83, 0.35, 2.07, 1.65, 7.66, repro,
2008-04-24,-0.12, 2.70, -2.95, 2.04, 1.60, 7.52, repro,
2008-04-25,0.34, 2.51, -2.20, 2.00, 1.56, 7.29, repro,
2008-04-26,-0.08, 2.32, -4.51, 2.10, 1.66, 7.67, repro,
2008-04-27,-0.97, 2.39, -3.97, 2.09, 1.61, 7.60, repro,
2008-04-28,-0.08, 1.67, -5.07, 2.09, 1.60, 7.61, repro,
2008-04-29,-0.87, 0.86, 4.81, 2.14, 1.60, 7.64, repro,
2008-04-30,-1.21, 1.87, -0.69, 2.06, 1.60, 7.42, repro,
2008-05-01,-0.46, 2.41, -1.08, 2.08, 1.63, 7.54, repro,
2008-05-02,-0.10, 1.89, 3.06, 2.09, 1.65, 7.62, repro,
2008-05-03,-0.55, 1.45, 2.37, 2.06, 1.60, 7.53, repro,
2008-05-04,-0.85, 1.91, 1.87, 2.02, 1.57, 7.40, repro,
2008-05-05,-0.38, 2.69, 0.17, 2.15, 1.66, 7.89, repro,
2008-05-06,-0.49, 0.81, 2.17, 2.05, 1.60, 7.41, repro,
2008-05-07,-0.12, 0.87, 2.59, 2.05, 1.60, 7.48, repro,
2008-05-08,-0.59, 2.08, -1.14, 2.25, 1.75, 8.08, repro,
2008-05-09,-0.61, 1.45, -0.94, 2.04, 1.60, 7.51, repro,
2008-05-10,-0.60, 3.09, 0.05, 2.05, 1.60, 7.47, repro,
2008-05-11,-0.92, 1.55, -0.34, 2.04, 1.59, 7.39, repro,
2008-05-12,-0.94, 1.35, 11.07, 2.11, 1.64, 7.66, repro,
2008-05-13,-0.72, 1.03, 6.65, 2.06, 1.59, 7.47, repro,
2008-05-14,0.11, 2.33, -3.48, 2.03, 1.57, 7.41, repro,
2008-05-15,-0.41, 1.63, -4.49, 2.03, 1.58, 7.43, repro,
2008-05-16,-0.36, 2.48, -3.95, 2.03, 1.57, 7.36, repro,
2008-05-17,-0.27, 1.44, 0.84, 2.05, 1.60, 7.45, repro,
2008-05-18,-0.90, 2.27, 4.00, 2.08, 1.61, 7.55, repro,
2008-05-19,-0.44, 2.20, 0.63, 2.01, 1.56, 7.31, repro,
2008-05-20,-0.29, 0.97, 8.38, 2.03, 1.60, 7.49, repro,
2008-05-21,-1.57, 0.53, 4.07, 2.01, 1.59, 7.42, repro,
2008-05-22,-1.03, 0.71, 7.27, 2.06, 1.65, 7.63, repro,
2008-05-23,-0.97, 1.68, 9.13, 2.02, 1.62, 7.57, repro,
2008-05-24,1.68, 1.72, 1.22, 2.03, 1.57, 7.37, repro,
2008-05-25,-0.38, 1.91, 3.56, 2.02, 1.58, 7.42, repro,
2008-05-26,-1.29, 2.37, 1.25, 2.02, 1.60, 7.46, repro,
2008-05-27,-0.52, 3.11, 2.24, 2.02, 1.58, 7.41, repro,
2008-05-28,0.09, 1.83, 1.93, 2.07, 1.64, 7.58, repro,
2008-05-29,0.59, 2.55, 1.75, 2.07, 1.62, 7.53, repro,
2008-05-30,-0.31, 2.31, 3.85, 2.02, 1.56, 7.32, repro,
2008-05-31,1.01, 1.92, 3.97, 1.99, 1.56, 7.29, repro,
2008-06-01,0.58, 2.09, -5.71, 2.01, 1.57, 7.40, repro,
2008-06-02,-0.11, 2.07, -1.63, 2.01, 1.58, 7.39, repro,
2008-06-03,0.93, 3.53, -4.31, 2.09, 1.64, 7.71, repro,
2008-06-04,-1.76, 2.31, 5.62, 2.01, 1.55, 7.31, repro,
2008-06-05,0.78, 2.10, 2.69, 2.05, 1.63, 7.56, repro,
2008-06-06,0.02, 1.04, 0.05, 2.03, 1.59, 7.43, repro,
2008-06-07,-0.29, 1.92, 8.22, 2.09, 1.65, 7.66, repro,
2008-06-08,0.10, 2.44, 3.87, 2.06, 1.62, 7.49, repro,
2008-06-09,0.97, 2.12, 1.43, 2.07, 1.61, 7.51, repro,
2008-06-10,0.36, 2.16, -0.73, 2.02, 1.55, 7.30, repro,
2008-06-11,-0.40, 1.48, 0.90, 2.01, 1.56, 7.33, repro,
2008-06-12,-0.13, 2.93, 1.80, 2.04, 1.60, 7.51, repro,
2008-06-13,0.22, 2.96, 2.99, 2.02, 1.57, 7.35, repro,
2008-06-14,0.87, 2.27, -0.24, 2.07, 1.59, 7.41, repro,
2008-06-15,-0.08, 2.19, 3.56, 2.07, 1.59, 7.39, repro,
2008-06-16,0.50, 2.13, 0.67, 2.02, 1.56, 7.35, repro,
2008-06-17,-0.03, 2.93, 0.70, 2.01, 1.56, 7.29, repro,
2008-06-18,0.24, 3.27, -0.54, 2.02, 1.56, 7.34, repro,
2008-06-19,1.22, 2.47, 0.76, 2.09, 1.67, 7.77, repro,
2008-06-20,-0.82, 2.80, 1.45, 2.02, 1.55, 7.30, repro,
2008-06-21,0.55, 1.69, -0.61, 2.02, 1.56, 7.36, repro,
2008-06-22,0.81, 4.59, -6.40, 2.02, 1.56, 7.34, repro,
2008-06-23,1.14, 1.88, 1.70, 2.03, 1.56, 7.36, repro,
2008-06-24,-0.05, 2.81, 3.53, 2.02, 1.56, 7.28, repro,
2008-06-25,1.18, 2.62, 1.49, 2.01, 1.54, 7.23, repro,
2008-06-26,-0.28, 2.48, 3.10, 2.06, 1.67, 7.58, repro,
2008-06-27,-0.06, 2.58, 6.94, 2.01, 1.54, 7.22, repro,
2008-06-28,0.69, 1.79, 5.23, 2.08, 1.62, 7.56, repro,
2008-06-29,1.05, 1.79, 0.78, 2.06, 1.61, 7.46, repro,
2008-06-30,0.50, 2.34, -6.59, 2.01, 1.55, 7.21, repro,
2008-07-01,0.83, 0.53, 0.17, 2.05, 1.61, 7.41, repro,
2008-07-02,1.26, 1.02, -1.35, 2.00, 1.54, 7.23, repro,
2008-07-03,0.43, 1.02, 11.38, 2.03, 1.56, 7.36, repro,
2008-07-04,0.43, 3.37, 6.75, 2.02, 1.56, 7.35, repro,
2008-07-05,0.89, 3.63, 1.25, 2.06, 1.61, 7.49, repro,
2008-07-06,0.22, 2.22, 7.27, 2.09, 1.63, 7.55, repro,
2008-07-07,0.84, 3.05, 1.47, 2.08, 1.69, 7.64, repro,
2008-07-08,-0.14, 2.33, 5.74, 2.02, 1.56, 7.33, repro,
2008-07-09,1.09, 1.30, 11.11, 2.07, 1.62, 7.55, repro,
2008-07-10,0.47, 1.03, 6.94, 2.09, 1.59, 7.43, repro,
2008-07-11,0.05, 1.88, 6.28, 2.13, 1.66, 7.58, repro,
2008-07-12,1.07, 1.63, 4.15, 2.02, 1.55, 7.23, repro,
2008-07-13,-0.51, 2.00, 6.11, 2.07, 1.62, 7.50, repro,
2008-07-14,-0.95, 1.27, 7.11, 2.07, 1.62, 7.55, repro,
2008-07-15,0.83, 1.05, 4.12, 2.02, 1.55, 7.28, repro,
2008-07-16,0.06, 1.05, 1.89, 2.02, 1.56, 7.29, repro,
2008-07-17,0.50, 2.30, 1.04, 2.02, 1.56, 7.29, repro,
2008-07-18,0.52, 2.40, 4.16, 2.14, 1.60, 7.65, repro,
2008-07-19,0.04, 1.70, 7.90, 2.10, 1.57, 7.62, repro,
2008-07-20,0.91, 0.39, 8.80, 2.01, 1.55, 7.25, repro,
2008-07-21,-0.25, 2.37, 10.43, 2.08, 1.58, 7.45, repro,
2008-07-22,-0.23, 1.98, 4.91, 2.01, 1.55, 7.22, repro,
2008-07-23,0.16, 1.84, 5.20, 2.05, 1.56, 7.36, repro,
2008-07-24,-0.01, 1.60, 5.70, 2.02, 1.56, 7.32, repro,
2008-07-25,-0.09, 1.60, 5.76, 2.01, 1.55, 7.28, repro,
2008-07-26,0.88, 2.27, 9.16, 2.02, 1.55, 7.28, repro,
2008-07-27,-1.49, 0.70, 7.29, 2.02, 1.54, 7.27, repro,
2008-07-28,2.03, 0.83, 8.00, 2.07, 1.59, 7.36, repro,
2008-07-29,0.19, 0.90, 15.01, 2.08, 1.57, 7.61, repro,
2008-07-30,-0.50, 3.25, 10.64, 2.09, 1.56, 7.59, repro,
2008-07-31,-0.05, 2.59, 11.55, 2.01, 1.54, 7.27, repro,
2008-08-01,-0.21, 2.16, 4.78, 2.01, 1.55, 7.28, repro,
2008-08-02,-1.57, 3.70, 8.56, 2.04, 1.60, 7.38, repro,
2008-08-03,0.97, 1.72, 2.06, 2.05, 1.60, 7.39, repro,
2008-08-04,0.50, 1.29, 6.62, 2.01, 1.55, 7.26, repro,
2008-08-05,-0.03, 2.63, 5.22, 2.02, 1.54, 7.28, repro,
2008-08-06,-0.81, 1.85, 4.97, 2.07, 1.57, 7.46, repro,
2008-08-07,-0.68, 1.55, 9.70, 2.12, 1.61, 7.55, repro,
2008-08-08,1.25, 0.54, 10.61, 2.10, 1.61, 7.48, repro,
2008-08-09,-1.04, 0.01, 8.77, 2.07, 1.57, 7.42, repro,
2008-08-10,-0.88, 1.38, 1.01, 2.08, 1.56, 7.44, repro,
2008-08-11,0.75, 0.90, 3.15, 2.07, 1.57, 7.44, repro,
2008-08-12,-0.44, 1.30, 7.51, 2.08, 1.57, 7.48, repro,
2008-08-13,0.11, 1.07, 6.74, 2.06, 1.56, 7.39, repro,
2008-08-14,-0.04, 0.80, 10.37, 2.09, 1.63, 7.56, repro,
2008-08-15,-0.03, 2.10, 5.95, 2.09, 1.57, 7.51, repro,
2008-08-16,0.77, 1.68, 6.27, 2.08, 1.57, 7.47, repro,
2008-08-17,-0.14, 1.44, 8.82, 2.08, 1.57, 7.48, repro,
2008-08-18,0.67, 1.70, 8.81, 2.09, 1.59, 7.56, repro,
2008-08-19,0.57, 1.45, 8.01, 2.06, 1.57, 7.44, repro,
2008-08-20,-0.87, 1.47, 6.32, 2.07, 1.56, 7.40, repro,
2008-08-21,-0.35, 0.61, 11.50, 2.09, 1.57, 7.49, repro,
2008-08-22,2.27, 0.72, 1.13, 2.07, 1.56, 7.45, repro,
2008-08-23,-0.46, 2.23, 7.15, 2.06, 1.57, 7.42, repro,
2008-08-24,0.31, 0.98, 2.55, 2.06, 1.59, 7.51, repro,
2008-08-25,-1.72, 2.39, 9.20, 2.12, 1.64, 7.66, repro,
2008-08-26,-0.52, 0.29, 10.34, 2.14, 1.58, 7.56, repro,
2008-08-27,-0.31, 0.71, 8.80, 2.10, 1.60, 7.60, repro,
2008-08-28,0.04, 0.59, 8.00, 2.21, 1.67, 7.92, repro,
2008-08-29,0.26, 0.45, 5.72, 2.08, 1.58, 7.49, repro,
2008-08-30,-0.07, 0.29, 13.00, 2.10, 1.59, 7.55, repro,
2008-08-31,-0.03, 0.51, 9.56, 2.11, 1.59, 7.55, repro,
2008-09-01,0.22, -0.27, 6.66, 2.11, 1.59, 7.57, repro,
2008-09-02,-0.59, 1.18, 3.52, 2.08, 1.59, 7.54, repro,
2008-09-03,0.30, 0.73, 8.24, 2.09, 1.60, 7.54, repro,
2008-09-04,-0.49, 0.61, 6.76, 2.20, 1.71, 8.05, repro,
2008-09-05,0.17, 1.36, 3.87, 2.17, 1.64, 7.69, repro,
2008-09-06,-0.54, 0.58, 6.88, 2.11, 1.59, 7.56, repro,
2008-09-07,-0.26, 1.67, 7.86, 2.09, 1.59, 7.57, repro,
2008-09-08,-0.36, 1.31, 1.93, 2.11, 1.63, 7.67, repro,
2008-09-09,-0.42, 1.18, 6.52, 2.12, 1.58, 7.60, repro,
2008-09-10,-0.10, 2.13, 8.55, 2.12, 1.62, 7.67, repro,
2008-09-11,-0.85, 0.04, 6.30, 2.13, 1.63, 7.69, repro,
2008-09-12,-1.20, -0.09, 8.78, 2.17, 1.67, 7.90, repro,
2008-09-13,-1.74, 1.35, 6.60, 2.10, 1.62, 7.68, repro,
2008-09-14,-1.01, 0.78, 6.70, 2.11, 1.61, 7.58, repro,
2008-09-15,-0.82, 1.80, 5.53, 2.12, 1.62, 7.67, repro,
2008-09-16,0.33, 0.46, 2.13, 2.08, 1.62, 7.55, repro,
2008-09-17,-0.56, 0.70, -0.87, 2.16, 1.63, 7.73, repro,
2008-09-18,-0.34, 0.95, 1.93, 2.08, 1.56, 7.44, repro,
2008-09-19,-0.45, 0.88, 4.39, 2.09, 1.61, 7.61, repro,
2008-09-20,0.32, 1.24, 8.11, 2.06, 1.56, 7.38, repro,
2008-09-21,-0.24, 1.25, 5.53, 2.06, 1.56, 7.40, repro,
2008-09-22,-0.25, 0.81, 5.83, 2.08, 1.59, 7.60, repro,
2008-09-23,0.60, -0.04, 8.76, 2.05, 1.55, 7.37, repro,
2008-09-24,-0.04, 0.68, 10.26, 2.16, 1.67, 7.84, repro,
2008-09-25,0.28, 1.38, 7.48, 2.10, 1.59, 7.57, repro,
2008-09-26,0.33, 1.04, 13.49, 2.06, 1.56, 7.42, repro,
2008-09-27,-1.16, 1.92, 5.33, 2.09, 1.60, 7.54, repro,
2008-09-28,-0.88, 0.58, 4.15, 2.06, 1.55, 7.35, repro,
2008-09-29,-0.42, -0.54, 2.70, 2.11, 1.61, 7.59, repro,
2008-09-30,0.61, 1.67, 1.71, 2.07, 1.56, 7.44, repro,
2008-10-01,-0.27, 1.93, 4.71, 2.07, 1.55, 7.40, repro,
2008-10-02,-1.04, 1.86, -1.29, 2.11, 1.61, 7.60, repro,
2008-10-03,0.47, 0.70, 6.32, 2.13, 1.65, 7.71, repro,
2008-10-04,-0.85, 0.02, 8.44, 2.08, 1.56, 7.43, repro,
2008-10-05,-1.99, 0.50, 9.47, 2.15, 1.67, 7.84, repro,
2008-10-06,-0.14, 1.04, 5.83, 2.07, 1.56, 7.41, repro,
2008-10-07,0.25, 1.63, 3.25, 2.09, 1.56, 7.45, repro,
2008-10-08,0.09, 1.10, 5.82, 2.07, 1.58, 7.47, repro,
2008-10-09,-1.64, 0.73, 1.73, 2.02, 1.54, 7.27, repro,
2008-10-10,-1.75, 1.07, -2.80, 2.01, 1.55, 7.29, repro,
2008-10-11,-0.68, 1.48, -0.58, 2.02, 1.55, 7.30, repro,
2008-10-12,0.12, 1.89, 3.78, 2.03, 1.55, 7.35, repro,
2008-10-13,0.36, 2.01, 4.27, 2.02, 1.54, 7.31, repro,
2008-10-14,-0.41, 1.67, 1.89, 2.02, 1.55, 7.30, repro,
2008-10-15,-0.22, 1.46, 3.10, 2.08, 1.57, 7.47, repro,
2008-10-16,-0.22, 1.63, 2.80, 2.06, 1.58, 7.45, repro,
2008-10-17,-0.36, 1.12, -0.63, 2.03, 1.55, 7.37, repro,
2008-10-18,-0.12, 0.75, 2.98, 2.02, 1.53, 7.25, repro,
2008-10-19,-0.04, 0.96, 2.44, 2.02, 1.54, 7.27, repro,
2008-10-20,-1.75, -0.45, 8.65, 2.02, 1.54, 7.24, repro,
2008-10-21,-1.14, 1.96, 3.70, 2.00, 1.54, 7.22, repro,
2008-10-22,-1.01, 1.21, 2.33, 2.01, 1.55, 7.27, repro,
2008-10-23,-0.16, 2.34, 3.15, 2.01, 1.54, 7.25, repro,
2008-10-24,0.15, 1.40, 6.99, 2.02, 1.54, 7.28, repro,
2008-10-25,0.75, 1.12, 8.25, 2.05, 1.59, 7.33, repro,
2008-10-26,-0.41, 1.30, 0.56, 2.01, 1.54, 7.23, repro,
2008-10-27,-0.04, 1.20, -2.00, 2.01, 1.54, 7.27, repro,
2008-10-28,-0.66, 0.84, -4.08, 2.09, 1.56, 7.43, repro,
2008-10-29,-0.97, 1.12, 1.53, 2.09, 1.56, 7.40, repro,
2008-10-30,0.18, 0.64, 2.02, 2.02, 1.55, 7.32, repro,
2008-10-31,1.02, 2.18, 0.62, 2.11, 1.59, 7.54, repro,
2008-11-01,0.74, -0.13, 6.27, 2.04, 1.56, 7.41, repro,
2008-11-02,0.37, 1.46, 3.13, 2.03, 1.59, 7.42, repro,
2008-11-03,2.07, 1.70, 3.10, 2.05, 1.57, 7.36, repro,
2008-11-04,0.63, 0.84, 1.92, 2.04, 1.60, 7.44, repro,
2008-11-05,-1.66, 0.83, 0.30, 2.05, 1.58, 7.43, repro,
2008-11-06,0.02, 1.67, -2.86, 2.07, 1.62, 7.56, repro,
2008-11-07,0.64, 1.56, -3.48, 2.04, 1.61, 7.46, repro,
2008-11-08,0.28, 0.94, -0.16, 2.06, 1.62, 7.51, repro,
2008-11-09,-1.82, -0.41, 3.39, 2.05, 1.60, 7.52, repro,
2008-11-10,0.55, -0.14, 0.95, 2.04, 1.60, 7.43, repro,
2008-11-11,0.86, 1.28, 5.84, 2.20, 1.82, 8.23, repro,
2008-11-12,0.14, 0.65, 2.22, 2.02, 1.56, 7.37, repro,
2008-11-13,-1.59, 1.63, 3.26, 2.08, 1.63, 7.50, repro,
2008-11-14,-0.43, 1.31, 3.01, 2.14, 1.72, 7.77, repro,
2008-11-15,-0.94, 2.20, -0.83, 2.07, 1.63, 7.60, repro,
2008-11-16,0.92, 1.46, -4.34, 2.10, 1.66, 7.63, repro,
2008-11-17,0.77, 2.18, 1.77, 2.12, 1.68, 7.71, repro,
2008-11-18,0.48, 1.39, -3.79, 2.25, 1.82, 8.37, repro,
2008-11-19,0.01, 0.94, -6.81, 2.07, 1.67, 7.64, repro,